Apalachicola Bay - St. George Island Weather Center

Moon Phase Calendar



Online Cameras

 


      

Current Conditions in Apalachicola
10/18/2021 1:00:25 PM

70°F
Feels Like 69
Clouds
Humidity
43%
Pressure
30.15"
Wind
9.9 mph (E)
Dew Point
47°F
UV Index
0/10 (Low)
Visibility
6 mi

Hourly Forecast

Date & Time Mon, Oct 18
1:00 PM
Mon, Oct 18
2:00 PM
Mon, Oct 18
3:00 PM
Mon, Oct 18
4:00 PM
Mon, Oct 18
5:00 PM
Mon, Oct 18
6:00 PM
Mon, Oct 18
7:00 PM
Mon, Oct 18
8:00 PM
Mon, Oct 18
9:00 PM
Mon, Oct 18
10:00 PM
Mon, Oct 18
11:00 PM
Tue, Oct 19
12:00 AM
Tue, Oct 19
1:00 AM
Tue, Oct 19
2:00 AM
Tue, Oct 19
3:00 AM
Tue, Oct 19
4:00 AM
Tue, Oct 19
5:00 AM
Tue, Oct 19
6:00 AM
Tue, Oct 19
7:00 AM
Tue, Oct 19
8:00 AM
Tue, Oct 19
9:00 AM
Tue, Oct 19
10:00 AM
Tue, Oct 19
11:00 AM
Tue, Oct 19
12:00 PM
Tue, Oct 19
1:00 PM
Tue, Oct 19
2:00 PM
Tue, Oct 19
3:00 PM
Tue, Oct 19
4:00 PM
Tue, Oct 19
5:00 PM
Tue, Oct 19
6:00 PM
Tue, Oct 19
7:00 PM
Tue, Oct 19
8:00 PM
Tue, Oct 19
9:00 PM
Tue, Oct 19
10:00 PM
Tue, Oct 19
11:00 PM
Wed, Oct 20
12:00 AM
Wed, Oct 20
1:00 AM
Wed, Oct 20
2:00 AM
Wed, Oct 20
3:00 AM
Wed, Oct 20
4:00 AM
Wed, Oct 20
5:00 AM
Wed, Oct 20
6:00 AM
Wed, Oct 20
7:00 AM
Wed, Oct 20
8:00 AM
Wed, Oct 20
9:00 AM
Wed, Oct 20
10:00 AM
Wed, Oct 20
11:00 AM
Wed, Oct 20
12:00 PM
Condition
Clouds

Clouds

Clouds

Clouds

Clouds

Clouds

Clouds

Clouds

Clouds

Clouds

Clouds

Clouds

Clouds

Clouds

Clouds

Clouds

Clouds

Clouds

Clouds

Clouds

Clouds

Clouds

Clouds

Clouds

Clouds

Clouds

Clear

Clear

Clear

Clouds

Clouds

Clouds

Clouds

Clouds

Clouds

Clouds

Clouds

Clouds

Clouds

Clouds

Clouds

Clouds

Clouds

Clouds

Clouds

Clouds

Clouds

Clouds
Temperature 70°F70°F71°F71°F71°F70°F69°F68°F66°F65°F64°F65°F66°F66°F68°F69°F68°F68°F69°F70°F71°F73°F74°F74°F75°F76°F76°F76°F76°F75°F72°F72°F71°F71°F71°F70°F70°F69°F69°F70°F72°F74°F74°F74°F76°F78°F79°F80°F
Feels Like 69°F69°F69°F70°F70°F69°F68°F67°F65°F64°F63°F64°F65°F65°F67°F68°F68°F68°F68°F70°F71°F73°F74°F74°F75°F76°F76°F76°F76°F75°F72°F72°F71°F71°F71°F70°F70°F69°F69°F71°F72°F75°F75°F75°F76°F78°F79°F80°F
Cloudiness 100%100%100%100%100%100%100%100%100%100%99%99%100%98%98%96%95%85%86%88%100%99%99%99%98%88%9%6%7%27%24%22%46%29%49%57%63%69%100%100%100%99%94%95%100%99%98%91%
Visibility 6 mi6 mi6 mi6 mi6 mi6 mi6 mi6 mi6 mi6 mi6 mi6 mi6 mi6 mi6 mi6 mi6 mi6 mi6 mi6 mi6 mi6 mi6 mi6 mi6 mi6 mi6 mi6 mi6 mi6 mi6 mi6 mi6 mi6 mi6 mi6 mi6 mi6 mi6 mi6 mi6 mi6 mi6 mi6 mi6 mi6 mi6 mi6 mi
Precipitation 0%0%0%0%0%0%0%0%0%0%0%0%0%0%0%0%0%0%0%0%0%0%0%0%0%0%0%0%0%0%0%0%0%0%0%0%0%0%0%0%0%0%0%0%0%0%0%0%
Humidity 43%42%43%44%47%52%53%54%57%62%66%65%61%64%66%68%71%73%71%68%67%64%62%60%60%58%57%56%56%58%63%65%65%66%68%69%71%73%75%74%74%70%70%71%67%61%58%55%
Dew Point 47°F46°F47°F48°F50°F52°F51°F51°F50°F51°F52°F53°F53°F54°F56°F57°F58°F59°F59°F59°F59°F60°F60°F60°F60°F60°F60°F60°F59°F59°F59°F59°F59°F59°F59°F59°F60°F60°F60°F61°F63°F64°F64°F64°F64°F64°F63°F62°F
Pressure 30.15"30.15"30.12"30.12"30.09"30.09"30.09"30.12"30.12"30.15"30.15"30.15"30.12"30.12"30.12"30.12"30.12"30.12"30.12"30.15"30.15"30.18"30.18"30.18"30.18"30.15"30.15"30.12"30.12"30.12"30.15"30.15"30.18"30.18"30.18"30.18"30.18"30.15"30.15"30.15"30.15"30.15"30.15"30.18"30.18"30.21"30.21"30.21"
Wind Speed 9.9 mph9.4 mph8.9 mph7.8 mph8 mph7.4 mph7.1 mph8.1 mph8.1 mph8.9 mph8.9 mph10.1 mph10.8 mph11 mph10 mph10.7 mph9.8 mph9.7 mph10.1 mph10.3 mph11.2 mph11.6 mph13.1 mph13 mph12.4 mph11.8 mph11.5 mph10.8 mph9.2 mph7.1 mph5 mph4.2 mph4.2 mph4.5 mph4.9 mph5.4 mph7.1 mph8.9 mph7.4 mph7.5 mph11.2 mph12.8 mph12 mph11.7 mph12.1 mph13.8 mph13.8 mph13 mph
Wind
Direction
79°
E
84°
E
85°
E
86°
E
88°
E
88°
E
81°
E
61°
ENE
43°
NE
34°
NE
41°
NE
55°
NE
68°
ENE
78°
ENE
88°
E
96°
E
91°
E
87°
E
87°
E
89°
E
89°
E
92°
E
96°
E
99°
E
100°
E
104°
ESE
108°
ESE
110°
ESE
110°
ESE
112°
ESE
119°
ESE
105°
ESE
87°
E
71°
ENE
70°
ENE
66°
ENE
58°
ENE
63°
ENE
64°
ENE
94°
E
112°
ESE
117°
ESE
121°
ESE
120°
ESE
119°
ESE
121°
ESE
121°
ESE
120°
ESE

Daily Forecast

Date High Low Precip. Humidity
Today
Oct 18

Clouds
71 °F
58 °F
0%
43%
Tuesday
Oct 19

Clouds
76 °F
65 °F
0%
60%
Wednesday
Oct 20

Clouds
79 °F
69 °F
0%
55%
Thursday
Oct 21

Clouds
81 °F
72 °F
0%
58%
Friday
Oct 22

Clouds
81 °F
69 °F
4%
60%
Saturday
Oct 23

Clear
82 °F
71 °F
14%
61%
Sunday
Oct 24

Rain
81 °F
74 °F
34%
63%
Monday
Oct 25

Rain
80 °F
76 °F
30%
72%
Tuesday
Oct 26

Clouds
81 °F
74 °F
20%
72%
Wednesday
Oct 27

Rain
82 °F
74 °F
38%
68%
Thursday
Oct 28

Rain
78 °F
73 °F
100%
83%
Friday
Oct 29

Rain
74 °F
61 °F
100%
36%
Saturday
Oct 30

Clouds
74 °F
56 °F
0%
29%
Sunday
Oct 31

Clouds
74 °F
62 °F
0%
40%
Monday
Nov 1

Clouds
72 °F
66 °F
5%
70%
Tuesday
Nov 2

Clouds
75 °F
71 °F
0%
73%

Temperature 8-14 Day Outlook



Precipitation 8-14 Day Outlook




Quick Links
Apalachicola Bay - St. George Island News
Apalachicola Bay - St. George Island Photos
Apalachicola Bay - St. George Island Videos




About Us
Contact Us
Site Map
Search Site
Advertise With Us
   
Apalachicola.USGulf.info
THE APALACHICOLA BAY - ST. GEORGE ISLAND WEBSITE

Copyright 2021, Coastal Town
Privacy    |    Legal